"Pseudo-MPEC" for P22gBcC

Created 2025 Oct 17 10:35:18 UT using Find_Orb

Click here for an explanation of pseudo-MPECs

 
 Astrometry: 
     P22gBcC* C2025 10 16.57227103 01 15.023-02 29 51.10   ~AGJ5 20.39wXNEOCPF52
     P22gBcC  C2025 10 16.58444803 01 23.522-02 29 27.14   ~AGJ5 20.40wXNEOCPF52
     P22gBcC  C2025 10 16.59665403 01 32.178-02 29 03.09   ~AGJ5 19.80wXNEOCPF52
     P22gBcC  C2025 10 16.60894603 01 40.984-02 28 38.67   ~AGJ5 19.92wXNEOCPF52
     P22gBcC KB2025 10 16.90008603 06 30.81 -02 21 28.3    ~AGMZ 19.7 GXNEOCP595
     P22gBcC KC2025 10 16.90203303 06 32.54 -02 21 21.3    ~AGMK 19.8 VSNEOCPL01
     P22gBcC KC2025 10 16.90334 03 06 30.44 -02 21 27.0    ~AGN5 19.6 VZNEOCPL04
     P22gBcC KC2025 10 16.90353103 06 33.78 -02 21 18.3    ~AGMK 19.9 VSNEOCPL01
     P22gBcC KC2025 10 16.90503003 06 34.98 -02 21 15.2    ~AGMK 20.0 VSNEOCPL01
     P22gBcC KB2025 10 16.90581203 06 35.52 -02 21 16.3    ~AGMZ 19.8 GXNEOCP595
     P22gBcC KC2025 10 16.90652803 06 36.23 -02 21 12.2    ~AGMK 19.9 VSNEOCPL01
     P22gBcC KC2025 10 16.90777603 06 37.30 -02 21 09.1    ~AGMK 20.2 VSNEOCPL01
     P22gBcC KC2025 10 16.90991 03 06 35.79 -02 21 13.8    ~AGN5 19.7 VZNEOCPL04
     P22gBcC KB2025 10 16.91155603 06 40.18 -02 21 04.7    ~AGMZ 20.0 GXNEOCP595
     P22gBcC KB2025 10 16.98978903 07 49.33 -02 18 12.5    ~AH0K 19.7 GVNEOCPI93
     P22gBcC KB2025 10 16.99367203 07 52.53 -02 18 04.1    ~AH0K 20.0 GVNEOCPI93
     P22gBcC KB2025 10 16.99745603 07 55.65 -02 17 56.2    ~AH0K 19.6 GVNEOCPI93
     P22gBcC KC2025 10 17.03389303 08 25.95 -02 16 33.9    ~AH1Z 18.9 GXNEOCP958
     P22gBcC KC2025 10 17.03882203 08 29.98 -02 16 22.9    ~AH1Z 19.1 GXNEOCP958
     P22gBcC KC2025 10 17.04376003 08 34.02 -02 16 11.2    ~AH1Z 19.0 GXNEOCP958
     P22gBcC |C2025 10 17.13778003 10 21.060-02 03 30.50   ~AH45 19.9 GVNEOCP807
     P22gBcC |C2025 10 17.14192003 10 24.650-02 03 21.20   ~AH45 19.7 GVNEOCP807
     P22gBcC |C2025 10 17.14584003 10 28.050-02 03 12.40   ~AH45 20.0 GVNEOCP807

Station data:
(595) Farra d'Isonzo  (N45.915731 E13.525780)  Italy.  Observers S. Aschi, E.
   Pettarin, G. Panterotto. Measurers S. Aschi, E. Pettarin. 0.40-m f/5.15
   reflector + CCD.
(807) Cerro Tololo Observatory, La Serena  (S30.169133 W70.805900)  Chile.
   Observer R. Holmes. 0.61-m f/6.5 astrograph + CCD.
(958) Observatoire de Dax  (N43.693381 W1.030530)  France.  Observer P.
   Dupouy. 0.32-m Schmidt-Cassegrain.
(F52) Pan-STARRS 2, Haleakala  (N20.707382 W156.255910)  US/Hawaii.
   Observers J. Herman, T. Lowe, P. Minguez, A. Schultz, I. Smith. Measurers
   K. Chambers, T. de Boer, J. Fairlamb, H. Gao, M. Huber, C.-C. Lin, E.
   Magnier, Y. Ramanjooloo, R. Wainscoat, R. Weryk. 1.8-m Ritchey-Chrétien +
   CCD.
(I93) St Pardon de Conques  (N44.558670 W0.202960)  France.  Observers F.
   Losse, W. D'Anna. Measurer F. Losse. 0.40-m f/3.7 reflector + CCD.
(L01) Višnjan Observatory, Tičan  (N45.290897 E13.749300)  Croatia.
   Observers K. Korlević, L. Poropat. Measurer K. Korlevic. 1.0-m f/2.9
   reflector + CCD.
(L04) ROASTERR-1 Observatory, Cluj-Napoca  (N46.820952 E23.596400)  Romania.
   Observer L. Hudin. 0.1-m f/9 refractor + CCD.

Orbital elements:  P22gBcC
   Perihelion 2025 Dec 18.036020 +/- 0.0398 TT =  0:51:52.1 (JD 2461027.536020)
Epoch 2025 Oct 17.0 TT = JDT 2460965.5   Earth MOID: 0.0017   Ma: 0.0797
M 308.561938439 +/- 0.042           (J2000 ecliptic)             AutoNEOCP
n   0.829164437 +/- 0.000169        Peri.   64.000043 +/- 0.08
a   1.122127669 +/- 0.000153        Node    32.423626 +/- 0.019
e   0.20326865 +/- 0.000208         Incl.    2.413821 +/- 0.0052
P   1.189/434.164d         H 27.20  G  0.15   U  6.9
q 0.894034289 +/- 0.000286    Q 1.350221048 +/- 0.000264
From 23 observations 2025 Oct. 16-17 (13.8 hr); mean residual 0".42
Residuals in arcseconds: 
251016 F52  .15-  .00     251016 L01  .12-  .39-    251016 I93  .36+  .21+    
251016 F52  .12-  .06+    251016 595  .30-  .17+    251017 958  .31-  .61-    
251016 F52  .24+  .02-    251016 L01  .08+  .45-    251017 958  .63-  .33-    
251016 F52  .04+  .07-    251016 L01  .68+  .10+    251017 958  .96-  .61+    
251016 595  .16+  .14-    251016 L04  .32+  .33+    251017 807  .12+  .09+    
251016 L01  .43+  .37-    251016 595  1.6-  .01+    251017 807  .20+  .08-    
251016 L04  .35+  .63+    251016 I93  .29+  .19+    251017 807  .39+  .26-    
251016 L01  .45+  .43-    251016 I93  .30+  .35+    

Ephemerides (geocentric):
Date (UTC) HH   RA             Dec           delta  r     elong  mag " sig PA
---- --------  ------------   ------------  ------ ------ -----  --- --------
2025 10 17 11  03 15 34.115   -01 54 11.29  .01810 1.0125 151.1 19.8 .513  99
2025 10 17 12  03 16 19.568   -01 52 23.51  .01799 1.0124 151.0 19.8 .562  98
2025 10 17 13  03 17 05.601   -01 50 34.20  .01787 1.0122 150.9 19.8 .613  97
2025 10 17 14  03 17 52.224   -01 48 43.34  .01776 1.0121 150.7 19.7 .667  96
2025 10 17 15  03 18 39.448   -01 46 50.90  .01764 1.0120 150.6 19.7 .723  95
2025 10 17 16  03 19 27.284   -01 44 56.85  .01752 1.0118 150.5 19.7 .782  95
2025 10 17 17  03 20 15.742   -01 43 01.17  .01741 1.0117 150.3 19.7 .844  94
2025 10 17 18  03 21 04.834   -01 41 03.81  .01729 1.0116 150.2 19.7 .908  93
2025 10 17 19  03 21 54.571   -01 39 04.76  .01718 1.0114 150.0 19.7 .975  93
2025 10 17 20  03 22 44.964   -01 37 03.98  .01706 1.0113 149.9 19.7 1.05  92
2025 10 17 21  03 23 36.027   -01 35 01.44  .01695 1.0112 149.7 19.7 1.12  91
2025 10 17 22  03 24 27.770   -01 32 57.11  .01684 1.0110 149.6 19.7 1.19  91
2025 10 17 23  03 25 20.207   -01 30 50.96  .01672 1.0109 149.4 19.6 1.27  91
2025 10 18 00  03 26 13.350   -01 28 42.95  .01661 1.0108 149.2 19.6 1.36  90
2025 10 18 01  03 27 07.211   -01 26 33.05  .01649 1.0106 149.1 19.6 1.44  90
2025 10 18 02  03 28 01.805   -01 24 21.22  .01638 1.0105 148.9 19.6 1.53  89
2025 10 18 03  03 28 57.144   -01 22 07.44  .01627 1.0104 148.7 19.6 1.63  89
2025 10 18 04  03 29 53.243   -01 19 51.66  .01616 1.0102 148.6 19.6 1.72  89
2025 10 18 05  03 30 50.114   -01 17 33.85  .01604 1.0101 148.4 19.6 1.82  89
2025 10 18 06  03 31 47.774   -01 15 13.97  .01593 1.0100 148.2 19.6 1.93  88
2025 10 18 07  03 32 46.236   -01 12 51.99  .01582 1.0098 148.0 19.6 2.04  88
2025 10 18 08  03 33 45.515   -01 10 27.87  .01571 1.0097 147.8 19.6 2.15  88
2025 10 18 09  03 34 45.627   -01 08 01.56  .01560 1.0096 147.7 19.5 2.27  88
2025 10 18 10  03 35 46.587   -01 05 33.03  .01549 1.0094 147.5 19.5 2.39  87
2025 10 18 11  03 36 48.411   -01 03 02.24  .01538 1.0093 147.3 19.5 2.52  87
2025 10 18 12  03 37 51.115   -01 00 29.14  .01527 1.0092 147.1 19.5 2.65  87
2025 10 18 13  03 38 54.715   -00 57 53.70  .01516 1.0090 146.9 19.5 2.78  87
2025 10 18 14  03 39 59.229   -00 55 15.88  .01505 1.0089 146.7 19.5 2.93  87
2025 10 18 15  03 41 04.674   -00 52 35.62  .01494 1.0088 146.4 19.5 3.07  86
2025 10 18 16  03 42 11.067   -00 49 52.89  .01483 1.0086 146.2 19.5 3.22  86
2025 10 18 17  03 43 18.425   -00 47 07.65  .01472 1.0085 146.0 19.5 3.38  86
2025 10 18 18  03 44 26.768   -00 44 19.84  .01461 1.0084 145.8 19.5 3.54  86
2025 10 18 19  03 45 36.114   -00 41 29.43  .01451 1.0082 145.6 19.4 3.71  86
2025 10 18 20  03 46 46.481   -00 38 36.36  .01440 1.0081 145.3 19.4 3.89  86
2025 10 18 21  03 47 57.889   -00 35 40.59  .01429 1.0080 145.1 19.4 4.07  85
2025 10 18 22  03 49 10.358   -00 32 42.07  .01419 1.0078 144.9 19.4 4.26  85
2025 10 18 23  03 50 23.907   -00 29 40.76  .01408 1.0077 144.6 19.4 4.45  85
2025 10 19 00  03 51 38.557   -00 26 36.61  .01397 1.0076 144.4 19.4 4.65  85
2025 10 19 01  03 52 54.328   -00 23 29.56  .01387 1.0074 144.1 19.4 4.86  85
2025 10 19 02  03 54 11.242   -00 20 19.57  .01376 1.0073 143.9 19.4 5.07  85
2025 10 19 03  03 55 29.320   -00 17 06.59  .01366 1.0072 143.6 19.4 5.30  85
2025 10 19 04  03 56 48.583   -00 13 50.57  .01356 1.0070 143.3 19.4 5.53  85
2025 10 19 05  03 58 09.055   -00 10 31.46  .01345 1.0069 143.1 19.3 5.77  85
2025 10 19 06  03 59 30.757   -00 07 09.20  .01335 1.0068 142.8 19.3 6.01  85
2025 10 19 07  04 00 53.712   -00 03 43.75  .01325 1.0066 142.5 19.3 6.27  84
2025 10 19 08  04 02 17.944   -00 00 15.06  .01315 1.0065 142.2 19.3 6.53  84
2025 10 19 09  04 03 43.476   +00 03 16.93  .01304 1.0064 141.9 19.3 6.80  84
2025 10 19 10  04 05 10.332   +00 06 52.27  .01294 1.0062 141.6 19.3 7.08  84